Weather History for KCNM - October, 2013

Change the Weather History Date:

Thursday, October 10, 2013

  Actual Average Record
Temperature  
Mean Temperature 70 °F -  
Max Temperature 90 °F 80 °F 95 °F (1998)
Min Temperature 52 °F 50 °F 32 °F (2000)
Cooling Degree Days 6    
Growing Degree Days 20 (Base 50)    
Moisture  
Dew Point 41 °F    
Average Humidity 40    
Maximum Humidity 80    
Minimum Humidity 12    
Precipitation  
Precipitation 0.00 in - - ()
Sea Level Pressure  
Sea Level Pressure 29.71 in    
Wind  
Wind Speed 10 mph (SSW)    
Max Wind Speed 22 mph    
Max Gust Speed 33 mph    
Visibility 10 miles    
Events      
Averages and records for this station are not official NWS values.
T = Trace of Precipitation, MM = Missing Value Source: NWS Daily Summary

Daily Weather History Graph

Daily Weather History Graph

Search for Another Location

Airport or City:

Trip Planner

Search our weather history database for the weather conditions in past years. The results will help you decide how hot, cold, wet, or windy it might be!

Date:

Astronomy

Oct. 10, 2013 Rise Set
Actual Time 6:57 AM MDT 6:29 PM MDT
Civil Twilight 6:32 AM MDT 6:54 PM MDT
Nautical Twilight 6:04 AM MDT 7:22 PM MDT
Astronomical Twilight 5:35 AM MDT 7:51 PM MDT
Moon 12:38 PM MDT (10/10) 11:22 PM MDT (10/10)
Length of Visible Light 12h 21m
Length of Day
11h 32m
Waxing Crescent, 36% of the Moon is Illuminated
Oct 10
Waxing Crescent
Oct 11
First Quarter
Oct 18
Full
Oct 26
Last Quarter
Nov 3
New

Hourly Weather History & Observations

Time (MDT) Temp. Dew Point Humidity Pressure Visibility Wind Dir Wind Speed Gust Speed Precip Events Conditions
12:53 AM 64.0 °F 48.9 °F 58% 29.75 in 10.0 mi SSE 12.7 mph - N/A   Clear
1:53 AM 64.0 °F 48.9 °F 58% 29.75 in 10.0 mi SE 12.7 mph - N/A   Clear
2:53 AM 60.1 °F 48.9 °F 67% 29.75 in 10.0 mi South 6.9 mph - N/A   Clear
3:53 AM 59.0 °F 48.9 °F 69% 29.75 in 10.0 mi South 9.2 mph - N/A   Clear
4:53 AM 57.0 °F 48.0 °F 72% 29.76 in 10.0 mi SSE 5.8 mph - N/A   Clear
5:53 AM 52.0 °F 46.0 °F 80% 29.78 in 10.0 mi Calm Calm - N/A   Partly Cloudy
6:53 AM 53.1 °F 46.9 °F 80% 29.80 in 10.0 mi Calm Calm - N/A   Clear
7:53 AM 59.0 °F 48.9 °F 69% 29.81 in 10.0 mi South 4.6 mph - N/A   Clear
8:53 AM 64.9 °F 50.0 °F 58% 29.80 in 10.0 mi SSE 11.5 mph - N/A   Clear
9:53 AM 70.0 °F 50.0 °F 49% 29.80 in 10.0 mi SSE 9.2 mph - N/A   Clear
10:53 AM 75.0 °F 48.9 °F 40% 29.77 in 10.0 mi SSE 8.1 mph - N/A   Clear
11:53 AM 82.0 °F 48.0 °F 30% 29.73 in 10.0 mi South 11.5 mph - N/A   Clear
12:53 PM 88.0 °F 37.9 °F 17% 29.67 in 10.0 mi SSW 16.1 mph 25.3 mph N/A   Clear
1:53 PM 88.0 °F 39.0 °F 18% 29.63 in 10.0 mi South 6.9 mph 25.3 mph N/A   Clear
2:53 PM 89.1 °F 35.1 °F 15% 29.62 in 10.0 mi SSW 21.9 mph 33.4 mph N/A   Clear
3:53 PM 89.1 °F 32.0 °F 13% 29.61 in 10.0 mi SSW 19.6 mph - N/A   Clear
4:53 PM 89.1 °F 30.0 °F 12% 29.60 in 10.0 mi SSW 21.9 mph 28.8 mph N/A   Clear
5:53 PM 84.9 °F 28.9 °F 13% 29.61 in 10.0 mi WSW 15.0 mph - N/A   Clear
6:53 PM 75.0 °F 30.9 °F 20% 29.64 in 10.0 mi WSW 12.7 mph - N/A   Clear
7:53 PM 75.0 °F 28.9 °F 18% 29.65 in 10.0 mi West 12.7 mph - N/A   Clear
8:53 PM 70.0 °F 30.9 °F 24% 29.68 in 10.0 mi ENE 4.6 mph - N/A   Clear
9:53 PM 73.0 °F 34.0 °F 24% 29.68 in 10.0 mi WNW 5.8 mph - N/A   Clear
10:53 PM 72.0 °F 34.0 °F 25% 29.69 in 10.0 mi WNW 4.6 mph - N/A   Clear
11:53 PM 64.0 °F 36.0 °F 35% 29.70 in 10.0 mi WSW 10.4 mph - N/A   Clear